Weather History for Point Lay, AK

Change the Weather History Date:

Sunday, December 30, 2012

  Actual Average Record
Temperature  
Mean Temperature -18 °F -  
Max Temperature -13 °F -5 °F 19 °F (2003)
Min Temperature -22 °F -13 °F -36 °F (2002)
Degree Days  
Heating Degree Days 82    
Moisture  
Dew Point -23 °F    
Average Humidity 74    
Maximum Humidity 76    
Minimum Humidity 70    
Precipitation  
Precipitation 0.00 in - - ()
Sea Level Pressure  
Sea Level Pressure 29.89 in    
Wind  
Wind Speed 24 mph (NE)    
Max Wind Speed 30 mph    
Max Gust Speed 34 mph    
Averages and records for this station are not official NWS values.
T = Trace of Precipitation, MM = Missing Value Source: NWS Daily Summary

Daily Weather History Graph

Daily Weather History Graph

Search for Another Location

Airport:

Trip Planner

Search our weather history database for the weather conditions in past years. The results will help you decide how hot, cold, wet, or windy it might be!

Date:

Astronomy

Dec. 31, 1969 Rise Set
Actual Time Sun does not rise Sun does not rise
Civil Twilight 11:37 AM AKST 4:12 PM AKST
Nautical Twilight 9:55 AM AKST 5:54 PM AKST
Astronomical Twilight 8:37 AM AKST 7:12 PM AKST
Moon 7:28 PM AKST (12/30) 12:30 PM AKST (12/30)
Length of Visible Light 4h 34m
Length of Day
0h 00m
Waning Gibbous, 94% of the Moon is Illuminated
Dec 30
Waning Gibbous
Jan 4
Last Quarter
Jan 11
New
Jan 18
First Quarter
Jan 26
Full

Hourly Weather History & Observations

Time (AKST) Temp. Windchill Dew Point Humidity Pressure Visibility Wind Dir Wind Speed Gust Speed Precip Events Conditions
12:56 AM -22.0 °F -51.3 °F -27.9 °F 74% 29.91 in - NE 20.7 mph - 0.00 in   Mostly Cloudy
1:56 AM -22.0 °F -52.5 °F -27.9 °F 74% 29.91 in - NE 23.0 mph - N/A   Mostly Cloudy
2:56 AM -22.0 °F -51.9 °F -27.4 °F 76% 29.90 in - NE 21.9 mph - N/A   Overcast
3:56 AM -22.0 °F -52.5 °F -27.9 °F 74% 29.92 in - NE 23.0 mph - 0.00 in   Overcast
4:56 AM -22.0 °F -51.9 °F -27.9 °F 74% 29.92 in - NE 21.9 mph - 0.00 in   Overcast
5:56 AM -19.8 °F -49.6 °F -26.0 °F 73% 29.91 in - NE 23.0 mph - 0.00 in   Overcast
6:56 AM -18.9 °F -47.8 °F -26.0 °F 70% 29.90 in - NE 21.9 mph - 0.00 in   Overcast
7:56 AM -17.9 °F -47.0 °F -24.0 °F 74% 29.89 in - NE 23.0 mph - N/A   Overcast
8:56 AM -17.9 °F -48.1 °F -24.0 °F 74% 29.88 in - NE 25.3 mph - N/A   Mostly Cloudy
9:56 AM -15.9 °F -44.4 °F -22.0 °F 74% 29.89 in - NE 23.0 mph - N/A   Overcast
10:56 AM -15.0 °F -45.2 °F -20.9 °F 75% 29.89 in - NE 27.6 mph 33.4 mph N/A   Overcast
11:56 AM -13.9 °F -41.7 °F -19.8 °F 75% 29.89 in - NE 23.0 mph - N/A   Overcast
12:56 PM -13.9 °F -43.8 °F -19.8 °F 75% 29.89 in - ENE 27.6 mph - N/A   Overcast
1:56 PM -13.0 °F -42.1 °F -18.9 °F 75% 29.88 in - NE 26.5 mph - N/A   Overcast
2:56 PM -13.0 °F -42.1 °F -18.9 °F 75% 29.89 in - NE 26.5 mph 33.4 mph N/A   Overcast
3:56 PM -13.0 °F -43.0 °F -18.9 °F 75% 29.87 in - NE 28.8 mph - N/A   Overcast
4:56 PM -13.0 °F -41.6 °F -18.9 °F 75% 29.87 in - ENE 25.3 mph 34.5 mph N/A   Mostly Cloudy
5:56 PM -13.0 °F -43.5 °F -18.9 °F 75% 29.88 in - ENE 29.9 mph 34.5 mph N/A   Mostly Cloudy
6:56 PM -15.0 °F -43.7 °F -20.9 °F 75% 29.88 in - ENE 24.2 mph - N/A   Mostly Cloudy
7:56 PM -15.0 °F -43.7 °F -22.0 °F 71% 29.87 in - NE 24.2 mph - N/A   Mostly Cloudy
8:56 PM -15.9 °F -46.5 °F -22.9 °F 71% 29.86 in - NE 27.6 mph - N/A   Overcast
9:56 PM -17.0 °F -46.4 °F -22.9 °F 74% 29.87 in - NE 24.2 mph - N/A   Mostly Cloudy
10:56 PM -17.0 °F -45.2 °F -22.9 °F 74% 29.88 in - NE 21.9 mph - N/A   Mostly Cloudy
11:56 PM -17.0 °F -46.4 °F -22.9 °F 74% 29.88 in - NE 24.2 mph - N/A   Overcast